Vorticity
7 6 5 5 6 6 5 4 3 3 4 4 3 5 4 4 7 7 10 10 5 -2 4 2 5 -6 7 3 -4 -1 1 3 4 19 8 2 11 7 5 7 13 10 8
7 8 7 5 5 5 3 3 4 3 3 3 4 4 4 4 3 4 3 5 8 9 9 8 6 8 7 5 4 6 7 5 3 4 4 7 17 -6 6 7 4 7 12
7 7 6 6 5 4 4 5 5 5 5 5 4 4 4 5 5 4 5 5 3 2 2 2 4 3 6 6 8 6 5 4 3 6 4 3 9 6 11 -3 -2 7 4
5 5 6 5 6 7 7 7 7 7 8 7 7 6 5 4 4 5 4 4 4 5 5 5 5 4 3 2 2 3 4 5 5 5 5 4 4 5 3 5 11 15 3
7 7 6 6 6 6 6 6 5 5 5 5 6 8 9 7 5 4 5 6 4 5 5 5 4 5 6 6 6 6 5 3 3 3 3 4 6 5 3 3 5 1 3
6 6 7 6 6 6 7 7 6 7 6 5 6 7 8 6 5 5 5 7 7 5 5 5 5 5 6 6 6 5 4 5 4 3 3 4 4 4 3 6 7 5 7
6 6 6 5 4 4 6 6 6 6 7 8 7 6 6 7 7 5 5 5 6 7 6 5 5 5 4 6 7 7 6 5 6 6 2 8 5 5 5 6 4 2 4
4 7 7 7 7 6 6 6 7 7 7 8 9 9 9 8 7 8 9 7 7 7 6 5 5 6 5 5 7 8 5 7 5 5 4 3 6 6 3 3 4 5 4
13 10 5 5 7 7 8 8 8 7 7 8 8 7 7 6 6 5 5 5 4 3 4 4 3 3 3 3 3 4 7 6 6 7 6 7 7 8 7 7 7 6 5
6 3 7 8 7 8 7 8 8 8 7 6 7 5 5 6 7 6 5 6 6 6 5 5 5 6 5 5 4 6 6 6 6 4 5 4 4 5 5 5 4 6 11
10 7 5 4 8 2 4 -4 8 7 7 5 3 3 4 3 3 3 2 5 5 4 3 4 4 4 6 8 7 6 4 5 6 4 4 5 5 5 4 5 4 4 4
5 3 2 2 2 7 12 8 11 12 7 6 2 2 4 3 8 10 5 -1 4 6 7 8 8 7 4 6 8 7 7 5 4 5 5 4 5 4 2 2 2 2 2
20 15 8 0 3 0 -0 -2 8 18 9 4 3 4 3 4 -0 -2 -1 9 14 10 10 8 10 10 8 5 5 5 4 4 4 4 3 3 3 3 4 3 2 3 3
25 26 17 14 11 8 10 14 8 9 14 9 8 11 12 3 4 -4 15 11 3 8 9 9 7 6 6 6 6 6 5 6 7 6 6 4 2 2 1 1 2 4 4
8 6 8 14 18 23 22 19 14 14 16 4 -0 11 18 19 17 21 15 8 12 11 9 12 11 8 7 7 7 7 7 6 8 9 7 7 7 5 5 4 4 5 6
3 13 12 4 10 11 11 14 14 17 22 21 24 23 17 15 15 15 14 11 8 8 8 8 11 11 12 12 12 11 10 11 11 9 8 8 8 9 8 7 6 7 6
8 15 5 6 6 12 10 14 8 5 2 2 5 14 14 15 17 14 11 9 8 10 10 5 4 8 8 6 5 5 8 10 11 11 9 10 11 11 12 12 12 9 8
8 6 5 13 -8 18 8 1 1 5 3 3 8 2 5 6 9 5 -0 0 6 3 4 8 6 3 3 4 6 10 13 13 9 10 7 6 7 7 6 9 10 11 8
1 -5 -1 10 1 4 6 7 1 0 1 2 13 10 10 15 8 7 7 9 11 8 5 6 7 9 8 9 6 6 12 15 15 13 12 9 8 9 10 15 16 15 12
7 8 19 18 15 9 -0 5 7 6 8 15 12 12 13 14 12 14 12 10 10 9 10 11 9 10 10 12 7 10 10 7 11 10 12 13 12 12 13 10 8 5 6
25 24 16 20 24 24 20 18 18 18 20 23 21 20 18 18 20 19 19 18 18 15 12 13 14 12 14 12 13 12 10 11 9 8 9 7 8 10 9 11 12 11 11
13 13 15 16 13 12 13 15 14 14 16 14 11 12 14 17 16 16 17 19 20 21 22 21 18 17 14 15 17 18 17 12 11 13 9 9 9 8 6 6 9 9 8
5 8 6 8 9 12 13 7 5 7 9 10 13 17 16 17 15 14 14 13 12 12 11 12 14 16 17 17 15 18 19 18 18 18 19 12 14 11 12 13 12 12 11
13 7 5 7 9 10 13 14 14 15 14 12 12 11 12 13 13 14 14 14 14 14 15 15 16 15 15 14 13 13 14 15 18 17 17 22 20 21 18 17 15 15 15
13 16 17 15 13 13 12 10 10 10 9 8 8 7 7 7 7 7 7 6 6 6 6 7 8 10 10 10 11 11 10 12 11 11 10 9 10 10 8 9 9 9 10
8 8 9 9 10 9 9 8 8 8 7 7 6 7 8 9 10 10 10 10 10 10 10 9 9 10 10 9 8 7 6 6 8 6 10 8 9 10 11 13 16 18 17
Height
5764 5766 5767 5769 5771 5774 5777 5780 5781 5783 5785 5787 5788 5790 5791 5793 5796 5799 5801 5803 5805 5808 5810 5812 5815 5818 5821 5825 5826 5828 5830 5831 5832 5833 5835 5839 5842 5845 5847 5849 5851 5854 5856
5756 5758 5759 5761 5763 5765 5768 5770 5772 5774 5776 5778 5781 5782 5784 5786 5790 5792 5795 5795 5799 5801 5804 5806 5808 5811 5814 5818 5820 5822 5825 5826 5828 5830 5832 5833 5835 5838 5841 5844 5846 5848 5850
5747 5749 5751 5753 5755 5757 5759 5761 5763 5765 5767 5769 5772 5773 5776 5779 5782 5784 5786 5788 5791 5794 5796 5798 5802 5803 5806 5810 5813 5815 5818 5820 5823 5825 5827 5829 5832 5833 5836 5838 5841 5843 5845
5737 5739 5741 5743 5745 5747 5750 5752 5755 5757 5758 5760 5762 5764 5767 5769 5772 5774 5776 5780 5782 5785 5787 5789 5794 5796 5799 5801 5804 5807 5810 5812 5815 5817 5820 5823 5826 5829 5830 5832 5835 5838 5839
5725 5728 5730 5732 5734 5736 5738 5741 5743 5746 5748 5750 5753 5755 5757 5759 5762 5764 5767 5770 5773 5776 5778 5780 5783 5786 5789 5792 5796 5798 5801 5804 5807 5809 5812 5815 5819 5822 5823 5826 5829 5832 5834
5713 5715 5717 5720 5722 5724 5726 5729 5731 5733 5736 5738 5740 5743 5746 5748 5750 5753 5755 5759 5762 5765 5768 5771 5773 5776 5779 5782 5785 5788 5792 5795 5798 5801 5802 5807 5811 5813 5815 5818 5821 5824 5827
5700 5702 5705 5707 5709 5711 5714 5717 5719 5721 5723 5726 5728 5730 5733 5736 5738 5741 5744 5747 5750 5753 5757 5760 5762 5765 5767 5770 5773 5778 5781 5783 5787 5791 5794 5798 5801 5803 5805 5809 5813 5816 5819
5687 5689 5691 5694 5696 5698 5700 5703 5706 5708 5710 5713 5715 5718 5720 5723 5725 5729 5732 5734 5738 5741 5744 5747 5750 5753 5755 5758 5761 5764 5768 5771 5775 5778 5782 5785 5790 5793 5795 5799 5802 5806 5809
5674 5676 5678 5680 5682 5684 5687 5689 5692 5694 5697 5699 5702 5705 5707 5710 5713 5715 5718 5721 5724 5727 5731 5734 5737 5739 5742 5744 5747 5751 5754 5758 5762 5765 5769 5772 5777 5780 5784 5786 5790 5794 5798
5658 5660 5663 5665 5668 5670 5672 5675 5677 5680 5682 5685 5688 5690 5693 5696 5699 5702 5705 5708 5711 5714 5717 5720 5723 5725 5728 5731 5735 5738 5741 5744 5748 5752 5755 5759 5763 5766 5770 5775 5778 5782 5787
5643 5645 5647 5650 5653 5656 5658 5660 5662 5665 5667 5669 5672 5675 5678 5681 5684 5687 5690 5693 5696 5698 5701 5704 5708 5711 5713 5716 5720 5723 5727 5730 5734 5737 5741 5745 5748 5752 5756 5760 5764 5769 5773
5627 5629 5631 5633 5635 5638 5640 5643 5646 5648 5651 5653 5656 5659 5661 5665 5668 5671 5673 5677 5679 5682 5685 5688 5691 5694 5697 5700 5704 5708 5711 5714 5718 5721 5725 5728 5733 5738 5741 5744 5748 5753 5758
5608 5610 5612 5615 5617 5619 5622 5624 5628 5630 5633 5636 5639 5642 5644 5647 5650 5652 5655 5658 5661 5664 5666 5670 5673 5676 5679 5683 5687 5691 5695 5698 5701 5704 5708 5712 5717 5720 5724 5728 5732 5736 5741
5589 5591 5593 5595 5598 5600 5602 5604 5607 5611 5614 5616 5619 5622 5625 5629 5632 5635 5637 5639 5642 5644 5645 5650 5654 5657 5661 5665 5668 5673 5676 5680 5683 5687 5690 5694 5699 5703 5707 5711 5715 5720 5724
5572 5574 5577 5578 5580 5581 5583 5585 5587 5590 5593 5596 5598 5601 5605 5608 5611 5613 5616 5620 5622 5625 5627 5627 5630 5636 5641 5645 5650 5654 5657 5660 5665 5668 5672 5676 5680 5684 5688 5693 5697 5703 5707
5557 5559 5561 5563 5564 5566 5567 5568 5570 5572 5575 5577 5579 5582 5584 5587 5590 5593 5595 5599 5602 5605 5609 5608 5610 5613 5618 5623 5628 5632 5636 5641 5644 5648 5652 5656 5660 5664 5668 5673 5677 5682 5687
5542 5544 5545 5547 5548 5549 5551 5552 5554 5556 5558 5559 5562 5564 5566 5569 5571 5573 5576 5578 5581 5584 5589 5590 5591 5594 5597 5601 5605 5611 5615 5619 5623 5627 5631 5635 5638 5642 5646 5651 5656 5661 5666
5527 5528 5529 5530 5532 5533 5534 5535 5536 5538 5539 5541 5543 5546 5547 5549 5551 5553 5556 5558 5560 5562 5567 5569 5569 5573 5577 5579 5582 5587 5591 5595 5599 5603 5608 5612 5616 5620 5625 5630 5634 5639 5643
5510 5511 5512 5513 5514 5514 5515 5515 5517 5518 5520 5521 5523 5524 5525 5527 5528 5530 5532 5535 5536 5539 5543 5546 5547 5549 5552 5555 5559 5562 5565 5569 5573 5576 5580 5585 5588 5594 5600 5605 5610 5614 5619
5494 5495 5493 5494 5494 5496 5496 5497 5498 5498 5498 5499 5501 5501 5502 5503 5505 5506 5508 5509 5510 5513 5517 5520 5524 5524 5527 5529 5534 5538 5539 5542 5547 5551 5555 5557 5562 5569 5575 5579 5585 5588 5592
5476 5476 5477 5476 5477 5477 5476 5477 5477 5477 5478 5478 5479 5480 5480 5481 5482 5483 5485 5486 5486 5489 5491 5493 5496 5499 5502 5503 5507 5510 5514 5518 5520 5523 5527 5530 5538 5543 5547 5549 5554 5558 5564
5461 5461 5461 5461 5460 5459 5458 5459 5459 5458 5460 5460 5460 5460 5460 5460 5461 5462 5462 5463 5463 5465 5467 5468 5470 5472 5476 5479 5481 5484 5488 5493 5496 5495 5500 5507 5508 5515 5519 5522 5525 5528 5534
5447 5446 5445 5445 5443 5442 5441 5440 5441 5443 5443 5442 5441 5441 5441 5441 5441 5442 5442 5442 5444 5444 5445 5446 5448 5449 5450 5453 5458 5461 5462 5466 5469 5472 5476 5484 5481 5490 5491 5494 5497 5500 5506
5432 5431 5430 5428 5426 5425 5424 5424 5424 5425 5425 5423 5423 5422 5422 5421 5421 5422 5423 5424 5424 5424 5425 5425 5428 5429 5428 5430 5432 5437 5440 5443 5447 5450 5450 5461 5456 5465 5464 5468 5472 5476 5479
5416 5415 5414 5412 5411 5409 5408 5407 5407 5407 5406 5404 5404 5403 5403 5403 5402 5403 5404 5404 5405 5406 5405 5405 5407 5409 5408 5408 5411 5414 5419 5420 5425 5428 5429 5435 5435 5442 5439 5449 5450 5450 5452
5402 5401 5399 5397 5396 5395 5393 5391 5390 5389 5387 5385 5384 5383 5383 5383 5382 5382 5383 5383 5384 5383 5383 5384 5386 5387 5387 5389 5389 5390 5395 5398 5402 5408 5405 5409 5411 5412 5421 5425 5426 5424 5425